| time (UTC) | temp F | wind direction | speed knots | gust knots | rain 1hr in | rain 24hr in | rain mn in | humidity % | barometer mb |
| 20260505225553 | 59 | 246 | 0.9 | 3.5 | 0.00 | 0.10 | 0.10 | 88 | 999.9 |
| 20260505224051 | 59 | 247 | 0.9 | 7.0 | 0.00 | 0.10 | 0.10 | 88 | 999.4 |
| 20260505222552 | 60 | 255 | 1.7 | 7.0 | 0.00 | 0.10 | 0.10 | 86 | 999.2 |
| 20260505221051 | 60 | 228 | 0.9 | 4.3 | 0.00 | 0.10 | 0.10 | 85 | 998.8 |
| 20260505215552 | 61 | 226 | 0.9 | 7.8 | 0.00 | 0.10 | 0.10 | 82 | 998.7 |
| 20260505214052 | 62 | 266 | 3.5 | 14.8 | 0.00 | 0.10 | 0.10 | 82 | 998.2 |
| 20260505212552 | 63 | 335 | 7.8 | 16.5 | 0.00 | 0.10 | 0.10 | 79 | 997.8 |
| 20260505211051 | 66 | 289 | 7.0 | 16.5 | 0.00 | 0.10 | 0.10 | 74 | 997.7 |
| 20260505205552 | 68 | 193 | 4.3 | 13.9 | 0.00 | 0.10 | 0.10 | 67 | 996.1 |
| 20260505204054 | 69 | 253 | 5.2 | 12.2 | 0.00 | 0.10 | 0.10 | 67 | 995.9 |
| 20260505202551 | 69 | 157 | 4.3 | 13.9 | 0.00 | 0.10 | 0.10 | 68 | 996.1 |
| 20260505201051 | 69 | 184 | 4.3 | 10.4 | 0.00 | 0.10 | 0.10 | 71 | 996.1 |
| 20260505195551 | 67 | 207 | 3.5 | 11.3 | 0.00 | 0.10 | 0.10 | 75 | 996.2 |
| 20260505192552 | 67 | 199 | 1.7 | 6.1 | 0.00 | 0.10 | 0.10 | 83 | 996.9 |
| 20260505191052 | 66 | 221 | 0.9 | 3.5 | 0.00 | 0.10 | 0.10 | 88 | 997.0 |
| 20260505185552 | 64 | 220 | 0.9 | 3.5 | 0.00 | 0.10 | 0.10 | 92 | 997.4 |
| 20260505184049 | 62 | 225 | 0.0 | 1.7 | 0.00 | 0.10 | 0.10 | 95 | 997.5 |
| 20260505182549 | 60 | 225 | 0.0 | 0.0 | 0.02 | 0.10 | 0.10 | 95 | 997.8 |
| 20260505181049 | 60 | 226 | 0.0 | 0.0 | 0.03 | 0.10 | 0.10 | 94 | 998.0 |
| 20260505174051 | 59 | 226 | 0.0 | 2.6 | 0.05 | 0.10 | 0.10 | 93 | 998.1 |
| 20260505171050 | 60 | 225 | 0.9 | 4.3 | 0.07 | 0.07 | 0.07 | 90 | 998.3 |
| 20260505162545 | 62 | 225 | 0.0 | 4.3 | 0.02 | 0.02 | 0.02 | 82 | 998.9 |
| 20260505161046 | 62 | 216 | 0.0 | 5.2 | 0.00 | 0.00 | 0.00 | 76 | 998.8 |
| 20260505152545 | 66 | 214 | 1.7 | 13.9 | 0.00 | 0.00 | 0.00 | 69 | 998.8 |
| 20260505151043 | 67 | 148 | 1.7 | 6.1 | 0.00 | 0.00 | 0.00 | 65 | 998.7 |
| 20260505122540 | 53 | 11 | 1.7 | 3.5 | 0.00 | 0.10 | 0.00 | 77 | 1000.0 |
| 20260505121040 | 52 | 11 | 0.9 | 3.5 | 0.00 | 0.10 | 0.00 | 80 | 1000.1 |
| 20260505115540 | 51 | 11 | 0.0 | 2.6 | 0.00 | 0.10 | 0.00 | 82 | 1000.3 |
| 20260505114040 | 50 | 11 | 0.9 | 6.1 | 0.00 | 0.10 | 0.00 | 82 | 1000.4 |
| 20260505111038 | 49 | 10 | 2.6 | 7.8 | 0.00 | 0.10 | 0.00 | 84 | 1000.5 |
| 20260505101038 | 45 | 5 | 3.5 | 8.7 | 0.00 | 0.10 | 0.00 | 88 | 1000.2 |
| 20260505095539 | 44 | 28 | 3.5 | 7.8 | 0.00 | 0.10 | 0.00 | 88 | 1000.4 |
| 20260505094040 | 44 | 23 | 3.5 | 7.8 | 0.00 | 0.10 | 0.00 | 89 | 1000.6 |
| 20260505092538 | 44 | 24 | 2.6 | 5.2 | 0.00 | 0.10 | 0.00 | 89 | 1000.6 |
| 20260505084037 | 44 | 23 | 2.6 | 7.0 | 0.00 | 0.10 | 0.00 | 89 | 1001.0 |
| 20260505082537 | 44 | 23 | 2.6 | 5.2 | 0.00 | 0.10 | 0.00 | 88 | 1000.9 |
| 20260505081037 | 44 | 22 | 2.6 | 5.2 | 0.00 | 0.10 | 0.00 | 89 | 1001.1 |
| 20260505074034 | 44 | 22 | 2.6 | 7.0 | 0.00 | 0.10 | 0.00 | 88 | 1001.4 |
| 20260505072534 | 44 | 22 | 2.6 | 7.0 | 0.00 | 0.10 | 0.00 | 88 | 1001.3 |
| 20260505071035 | 45 | 22 | 2.6 | 7.8 | 0.00 | 0.10 | 0.00 | 88 | 1001.4 |
| 20260505065533 | 45 | 20 | 2.6 | 7.0 | 0.00 | 0.10 | 0.00 | 88 | 1001.4 |
| 20260505064036 | 45 | 19 | 3.5 | 7.8 | 0.00 | 0.10 | 0.00 | 88 | 1001.6 |
| 20260505062532 | 45 | 22 | 3.5 | 7.0 | 0.00 | 0.10 | 0.00 | 87 | 1001.7 |
| 20260505061033 | 45 | 23 | 3.5 | 7.8 | 0.00 | 0.10 | 0.00 | 87 | 1001.9 |
| 20260505055532 | 45 | 15 | 3.5 | 7.8 | 0.00 | 0.10 | 0.00 | 86 | 1002.0 |
| 20260505054033 | 45 | 11 | 3.5 | 7.0 | 0.00 | 0.10 | 0.00 | 86 | 1002.3 |
| 20260505052534 | 45 | 20 | 3.5 | 7.8 | 0.00 | 0.10 | 0.00 | 85 | 1002.4 |
| 20260505051032 | 46 | 23 | 3.5 | 7.0 | 0.00 | 0.10 | 0.00 | 85 | 1002.6 |
| 20260505041028 | 46 | 32 | 2.6 | 5.2 | 0.00 | 0.10 | 0.00 | 85 | 1003.2 |
| 20260505035530 | 46 | 32 | 2.6 | 8.7 | 0.00 | 0.10 | 0.10 | 84 | 1003.2 |
| 20260505034024 | 47 | 11 | 3.5 | 7.8 | 0.00 | 0.10 | 0.10 | 83 | 1003.2 |
| 20260505032523 | 47 | 9 | 1.7 | 6.1 | 0.00 | 0.10 | 0.10 | 83 | 1003.3 |
| 20260505031023 | 47 | 0 | 2.6 | 7.0 | 0.00 | 0.10 | 0.10 | 82 | 1003.3 |
| 20260505025524 | 47 | 346 | 0.9 | 3.5 | 0.00 | 0.10 | 0.10 | 82 | 1003.6 |
| 20260505022517 | 48 | 346 | 1.7 | 7.0 | 0.00 | 0.10 | 0.10 | 82 | 1003.7 |
| 20260505021016 | 48 | 206 | 1.7 | 3.5 | 0.00 | 0.10 | 0.10 | 82 | 1003.8 |
| 20260505015517 | 48 | 206 | 0.0 | 1.7 | 0.00 | 0.10 | 0.10 | 81 | 1003.9 |
| 20260505014014 | 48 | 206 | 0.0 | 0.0 | 0.00 | 0.10 | 0.10 | 81 | 1004.0 |
| 20260505012512 | 49 | 206 | 0.0 | 0.0 | 0.00 | 0.10 | 0.10 | 81 | 1004.1 |
| 20260505011012 | 48 | 206 | 0.0 | 0.9 | 0.00 | 0.10 | 0.10 | 85 | 1004.1 |
| 20260505004007 | 49 | 206 | 0.0 | 0.0 | 0.00 | 0.10 | 0.10 | 79 | 1004.0 |
| 20260505001003 | 50 | 206 | 0.0 | 0.0 | 0.00 | 0.10 | 0.10 | 76 | 1003.8 |
| 20260504235504 | 51 | 206 | 0.0 | 0.0 | 0.00 | 0.10 | 0.10 | 75 | 1003.8 |
| 20260504234000 | 51 | 206 | 0.0 | 0.0 | 0.00 | 0.10 | 0.10 | 75 | 1003.7 |
| 20260504232501 | 51 | 206 | 0.0 | 0.0 | 0.00 | 0.10 | 0.10 | 74 | 1003.6 |
| 20260504231003 | 51 | 206 | 0.0 | 0.0 | 0.00 | 0.10 | 0.10 | 75 | 1003.5 |